| time (UTC) | temp F | wind direction | speed knots | gust knots | rain 1hr in | rain 24hr in | rain mn in | humidity % | barometer mb |
| 20260905115012 | 61 | 72 | 0.0 | 0.0 | 0.00 | 0.00 | 0.01 | 97 | 1011.0 |
| 20260905114510 | 61 | 71 | 0.0 | 0.0 | 0.00 | 0.00 | 0.01 | 97 | 1011.0 |
| 20260905114008 | 61 | 71 | 0.0 | 0.0 | 0.00 | 0.00 | 0.01 | 97 | 1011.0 |
| 20260905113509 | 61 | 72 | 0.0 | 0.0 | 0.00 | 0.00 | 0.01 | 97 | 1011.0 |
| 20260905113008 | 61 | 79 | 0.0 | 0.0 | 0.00 | 0.00 | 0.01 | 97 | 1011.0 |
| 20260905112509 | 61 | 79 | 0.0 | 0.0 | 0.00 | 0.00 | 0.01 | 97 | 1011.0 |
| 20260905112007 | 61 | 79 | 0.0 | 0.0 | 0.00 | 0.00 | 0.01 | 97 | 1011.0 |
| 20260905111508 | 60 | 79 | 0.0 | 0.0 | 0.00 | 0.00 | 0.00 | 97 | 1011.0 |
| 20260905111007 | 60 | 79 | 0.0 | 0.0 | 0.00 | 0.00 | 0.00 | 97 | 1011.3 |
| 20260905110506 | 60 | 79 | 0.0 | 0.0 | 0.00 | 0.00 | 0.00 | 97 | 1011.3 |
| 20260905110007 | 60 | 79 | 0.0 | 0.0 | 0.00 | 0.00 | 0.00 | 97 | 1011.3 |
| 20260905105507 | 60 | 79 | 0.0 | 0.0 | 0.00 | 0.00 | 0.00 | 97 | 1011.3 |
| 20260905105008 | 60 | 79 | 0.0 | 0.0 | 0.00 | 0.00 | 0.00 | 96 | 1011.3 |
| 20260905104506 | 60 | 207 | 0.0 | 0.0 | 0.00 | 0.00 | 0.00 | 96 | 1011.3 |
| 20260905104005 | 60 | 207 | 0.0 | 0.0 | 0.00 | 0.00 | 0.00 | 96 | 1011.3 |
| 20260905103505 | 61 | 207 | 0.0 | 0.0 | 0.00 | 0.00 | 0.00 | 96 | 1011.3 |
| 20260905103005 | 61 | 207 | 0.0 | 0.0 | 0.00 | 0.00 | 0.00 | 96 | 1011.3 |
| 20260905102504 | 61 | 207 | 0.0 | 0.0 | 0.00 | 0.00 | 0.00 | 96 | 1011.2 |
| 20260905102004 | 61 | 207 | 0.0 | 0.0 | 0.00 | 0.00 | 0.00 | 96 | 1011.2 |
| 20260905101507 | 61 | 207 | 0.0 | 0.0 | 0.00 | 0.00 | 0.00 | 96 | 1011.2 |
| 20260905101003 | 61 | 207 | 0.0 | 0.0 | 0.00 | 0.00 | 0.00 | 96 | 1011.3 |
| 20260905100503 | 62 | 207 | 0.0 | 0.0 | 0.00 | 0.00 | 0.00 | 96 | 1011.3 |
| 20260905100004 | 62 | 207 | 0.0 | 0.0 | 0.00 | 0.00 | 0.00 | 96 | 1011.3 |
| 20260905095503 | 62 | 207 | 0.0 | 0.0 | 0.00 | 0.00 | 0.00 | 96 | 1011.3 |
| 20260905095005 | 62 | 207 | 0.0 | 0.0 | 0.00 | 0.00 | 0.00 | 96 | 1011.3 |
| 20260905094503 | 62 | 207 | 0.0 | 0.0 | 0.00 | 0.00 | 0.00 | 96 | 1011.3 |
| 20260905094004 | 62 | 207 | 0.0 | 0.0 | 0.00 | 0.00 | 0.00 | 96 | 1011.3 |
| 20260905093502 | 62 | 207 | 0.0 | 0.0 | 0.00 | 0.00 | 0.00 | 96 | 1011.3 |
| 20260905093002 | 62 | 207 | 0.0 | 0.0 | 0.00 | 0.00 | 0.00 | 96 | 1011.3 |
| 20260905092501 | 62 | 207 | 0.0 | 0.0 | 0.00 | 0.00 | 0.00 | 97 | 1011.3 |
| 20260905092001 | 62 | 178 | 0.0 | 0.0 | 0.00 | 0.00 | 0.00 | 97 | 1011.3 |
| 20260905091503 | 62 | 178 | 0.0 | 0.0 | 0.00 | 0.00 | 0.00 | 96 | 1011.3 |
| 20260905091003 | 62 | 188 | 0.0 | 0.0 | 0.00 | 0.00 | 0.00 | 96 | 1011.3 |
| 20260905090600 | 62 | 188 | 0.0 | 0.0 | 0.00 | 0.00 | 0.00 | 96 | 1011.3 |
| 20260905090100 | 62 | 171 | 0.0 | 0.0 | 0.00 | 0.00 | 0.00 | 96 | 1011.3 |
| 20260905085602 | 62 | 171 | 0.0 | 0.0 | 0.00 | 0.00 | 0.00 | 97 | 1011.4 |
| 20260905085058 | 61 | 171 | 0.0 | 0.0 | 0.00 | 0.00 | 0.00 | 96 | 1011.4 |
| 20260905084601 | 61 | 174 | 0.0 | 0.0 | 0.00 | 0.00 | 0.00 | 96 | 1011.4 |
| 20260905084058 | 61 | 174 | 0.0 | 0.0 | 0.00 | 0.00 | 0.00 | 96 | 1011.4 |
| 20260905083558 | 61 | 174 | 0.0 | 0.0 | 0.00 | 0.00 | 0.00 | 96 | 1011.4 |
| 20260905083059 | 61 | 174 | 0.0 | 0.0 | 0.00 | 0.00 | 0.00 | 96 | 1011.4 |
| 20260905082557 | 61 | 174 | 0.0 | 0.0 | 0.00 | 0.00 | 0.00 | 96 | 1011.8 |
| 20260905082057 | 61 | 174 | 0.0 | 0.0 | 0.00 | 0.00 | 0.00 | 96 | 1011.8 |
| 20260905081559 | 61 | 174 | 0.0 | 0.0 | 0.00 | 0.00 | 0.00 | 96 | 1011.8 |
| 20260905081058 | 61 | 174 | 0.0 | 0.0 | 0.00 | 0.00 | 0.00 | 96 | 1011.9 |
| 20260905080556 | 61 | 174 | 0.0 | 0.0 | 0.00 | 0.00 | 0.00 | 96 | 1011.9 |
| 20260905080104 | 61 | 174 | 0.0 | 0.0 | 0.00 | 0.00 | 0.00 | 96 | 1011.9 |
| 20260905075557 | 61 | 174 | 0.0 | 0.0 | 0.00 | 0.00 | 0.00 | 96 | 1011.9 |
| 20260905075056 | 61 | 174 | 0.0 | 0.0 | 0.00 | 0.00 | 0.00 | 96 | 1011.9 |
| 20260905074556 | 61 | 174 | 0.0 | 0.0 | 0.00 | 0.00 | 0.00 | 96 | 1011.9 |
| 20260905074055 | 60 | 174 | 0.0 | 0.0 | 0.00 | 0.00 | 0.00 | 95 | 1011.7 |
| 20260905073559 | 61 | 151 | 0.0 | 0.0 | 0.00 | 0.00 | 0.00 | 96 | 1011.7 |
| 20260905073055 | 61 | 151 | 0.0 | 0.0 | 0.00 | 0.00 | 0.00 | 96 | 1011.7 |
| 20260905072554 | 61 | 151 | 0.0 | 0.0 | 0.00 | 0.00 | 0.00 | 95 | 1011.8 |
| 20260905072053 | 61 | 151 | 0.0 | 0.0 | 0.00 | 0.00 | 0.00 | 95 | 1011.8 |
| 20260905071553 | 61 | 151 | 0.0 | 0.0 | 0.00 | 0.00 | 0.00 | 95 | 1011.8 |
| 20260905071051 | 61 | 288 | 0.0 | 0.0 | 0.00 | 0.00 | 0.00 | 95 | 1011.5 |
| 20260905070551 | 62 | 288 | 0.0 | 0.0 | 0.00 | 0.00 | 0.00 | 95 | 1011.5 |
| 20260905070052 | 62 | 288 | 0.0 | 0.0 | 0.00 | 0.00 | 0.00 | 95 | 1011.5 |
| 20260905065552 | 62 | 288 | 0.9 | 0.0 | 0.00 | 0.00 | 0.01 | 96 | 1011.4 |
| 20260905065050 | 62 | 288 | 0.9 | 0.0 | 0.00 | 0.00 | 0.01 | 96 | 1011.4 |
| 20260905064550 | 62 | 290 | 0.9 | 0.0 | 0.00 | 0.00 | 0.01 | 96 | 1011.4 |
| 20260905064049 | 62 | 269 | 0.9 | 0.0 | 0.00 | 0.00 | 0.01 | 96 | 1011.5 |
| 20260905063549 | 62 | 284 | 0.9 | 0.0 | 0.00 | 0.00 | 0.01 | 96 | 1011.5 |
| 20260905063056 | 62 | 233 | 1.7 | 0.0 | 0.00 | 0.00 | 0.01 | 96 | 1011.5 |
| 20260905062548 | 62 | 282 | 2.6 | 0.0 | 0.00 | 0.00 | 0.01 | 96 | 1011.5 |
| 20260905062049 | 62 | 297 | 1.7 | 0.0 | 0.00 | 0.00 | 0.01 | 96 | 1011.5 |
| 20260905061551 | 62 | 261 | 0.9 | 0.0 | 0.00 | 0.00 | 0.01 | 96 | 1011.5 |
| 20260905061049 | 62 | 209 | 0.9 | 0.0 | 0.00 | 0.00 | 0.01 | 96 | 1011.5 |
| 20260905060548 | 62 | 206 | 0.9 | 0.0 | 0.00 | 0.00 | 0.01 | 95 | 1011.5 |
| 20260905060048 | 62 | 190 | 1.7 | 0.0 | 0.00 | 0.00 | 0.01 | 95 | 1011.5 |
| 20260905055549 | 63 | 243 | 2.6 | 0.0 | 0.00 | 0.00 | 0.01 | 96 | 1011.4 |
| 20260905055049 | 63 | 294 | 2.6 | 0.0 | 0.00 | 0.00 | 0.01 | 96 | 1011.4 |
| 20260905054554 | 62 | 261 | 2.6 | 0.0 | 0.00 | 0.00 | 0.01 | 95 | 1011.4 |
| 20260905054050 | 63 | 304 | 3.5 | 0.0 | 0.00 | 0.00 | 0.01 | 95 | 1011.4 |
| 20260905053547 | 63 | 264 | 2.6 | 0.0 | 0.00 | 0.00 | 0.01 | 95 | 1011.4 |
| 20260905053048 | 63 | 210 | 1.7 | 0.0 | 0.00 | 0.00 | 0.01 | 95 | 1011.4 |
| 20260905052549 | 63 | 261 | 1.7 | 0.0 | 0.00 | 0.00 | 0.01 | 95 | 1011.4 |
| 20260905052049 | 63 | 242 | 1.7 | 0.0 | 0.00 | 0.00 | 0.01 | 95 | 1011.4 |
| 20260905051547 | 63 | 277 | 1.7 | 0.0 | 0.00 | 0.00 | 0.01 | 95 | 1011.4 |
| 20260905051047 | 63 | 260 | 1.7 | 0.0 | 0.00 | 0.00 | 0.01 | 95 | 1011.7 |
| 20260905050547 | 63 | 244 | 0.9 | 0.0 | 0.00 | 0.00 | 0.01 | 95 | 1011.7 |
| 20260905050047 | 63 | 169 | 0.9 | 0.0 | 0.00 | 0.00 | 0.01 | 95 | 1011.7 |
| 20260905045546 | 63 | 161 | 1.7 | 0.0 | 0.00 | 0.00 | 0.01 | 95 | 1011.5 |
| 20260905045046 | 63 | 238 | 1.7 | 0.0 | 0.00 | 0.00 | 0.01 | 95 | 1011.5 |
| 20260905044547 | 63 | 254 | 2.6 | 0.0 | 0.00 | 0.00 | 0.01 | 95 | 1011.5 |
| 20260905044045 | 63 | 267 | 1.7 | 0.0 | 0.00 | 0.00 | 0.01 | 95 | 1011.4 |
| 20260905043546 | 63 | 283 | 1.7 | 0.0 | 0.00 | 0.00 | 0.01 | 95 | 1011.4 |
| 20260905043046 | 63 | 321 | 0.9 | 0.0 | 0.00 | 0.00 | 0.01 | 95 | 1011.4 |
| 20260905042549 | 63 | 284 | 1.7 | 0.0 | 0.00 | 0.00 | 0.01 | 95 | 1011.2 |
| 20260905042045 | 63 | 234 | 1.7 | 0.0 | 0.00 | 0.00 | 0.01 | 95 | 1011.2 |
| 20260905041546 | 63 | 301 | 2.6 | 0.0 | 0.00 | 0.00 | 0.01 | 94 | 1011.2 |
| 20260905041045 | 63 | 255 | 3.5 | 0.0 | 0.00 | 0.00 | 0.01 | 94 | 1011.1 |
| 20260905040545 | 63 | 278 | 2.6 | 0.0 | 0.00 | 0.00 | 0.01 | 94 | 1011.1 |
| 20260905040051 | 63 | 257 | 1.7 | 0.0 | 0.00 | 0.00 | 0.01 | 94 | 1011.1 |
| 20260905035545 | 63 | 285 | 1.7 | 0.0 | 0.00 | 0.00 | 0.01 | 94 | 1010.9 |
| 20260905035045 | 63 | 293 | 2.6 | 0.0 | 0.00 | 0.00 | 0.01 | 94 | 1010.9 |
| 20260905034545 | 63 | 297 | 2.6 | 0.0 | 0.00 | 0.00 | 0.01 | 94 | 1010.9 |
| 20260905034046 | 63 | 275 | 2.6 | 0.0 | 0.00 | 0.00 | 0.01 | 94 | 1011.0 |
| 20260905033544 | 63 | 274 | 2.6 | 0.0 | 0.00 | 0.00 | 0.01 | 93 | 1011.0 |
| 20260905033044 | 63 | 297 | 2.6 | 0.0 | 0.00 | 0.00 | 0.01 | 93 | 1011.0 |
| 20260905032544 | 63 | 263 | 2.6 | 0.0 | 0.00 | 0.00 | 0.01 | 93 | 1010.7 |
| 20260905032044 | 63 | 275 | 2.6 | 0.0 | 0.00 | 0.00 | 0.01 | 93 | 1010.7 |
| 20260905031544 | 63 | 264 | 2.6 | 0.0 | 0.00 | 0.00 | 0.01 | 93 | 1010.7 |
| 20260905031043 | 63 | 252 | 2.6 | 0.0 | 0.00 | 0.00 | 0.01 | 93 | 1010.7 |
| 20260905030543 | 63 | 289 | 2.6 | 0.0 | 0.00 | 0.00 | 0.01 | 93 | 1010.7 |
| 20260905030047 | 63 | 304 | 2.6 | 0.0 | 0.00 | 0.00 | 0.01 | 93 | 1010.7 |
| 20260905025543 | 63 | 316 | 2.6 | 0.0 | 0.00 | 0.00 | 0.01 | 93 | 1010.6 |
| 20260905025043 | 63 | 272 | 2.6 | 0.0 | 0.00 | 0.00 | 0.01 | 93 | 1010.6 |
| 20260905024543 | 63 | 250 | 1.7 | 0.0 | 0.00 | 0.00 | 0.01 | 93 | 1010.6 |
| 20260905024042 | 63 | 257 | 2.6 | 0.0 | 0.00 | 0.00 | 0.01 | 93 | 1010.6 |
| 20260905023542 | 63 | 277 | 3.5 | 0.0 | 0.00 | 0.00 | 0.01 | 93 | 1010.6 |
| 20260905023043 | 64 | 242 | 3.5 | 0.0 | 0.00 | 0.00 | 0.01 | 92 | 1010.6 |
| 20260905022542 | 64 | 266 | 2.6 | 0.0 | 0.00 | 0.00 | 0.01 | 92 | 1010.6 |
| 20260905022042 | 64 | 310 | 1.7 | 0.0 | 0.00 | 0.00 | 0.01 | 91 | 1010.6 |
| 20260905021542 | 64 | 317 | 2.6 | 0.0 | 0.00 | 0.00 | 0.01 | 91 | 1010.6 |
| 20260905021042 | 64 | 298 | 2.6 | 0.0 | 0.00 | 0.00 | 0.01 | 91 | 1010.7 |
| 20260905020542 | 64 | 311 | 2.6 | 0.0 | 0.00 | 0.00 | 0.01 | 91 | 1010.7 |
| 20260905020042 | 64 | 280 | 2.6 | 0.0 | 0.00 | 0.00 | 0.01 | 90 | 1010.7 |
| 20260905015541 | 64 | 274 | 2.6 | 0.0 | 0.00 | 0.00 | 0.01 | 90 | 1010.7 |
| 20260905015042 | 65 | 275 | 2.6 | 0.0 | 0.00 | 0.00 | 0.01 | 89 | 1010.7 |
| 20260905014541 | 65 | 304 | 3.5 | 0.0 | 0.00 | 0.00 | 0.01 | 89 | 1010.7 |
| 20260905014041 | 65 | 312 | 2.6 | 0.0 | 0.00 | 0.00 | 0.01 | 88 | 1010.7 |
| 20260905013545 | 66 | 291 | 2.6 | 0.0 | 0.00 | 0.00 | 0.01 | 87 | 1010.7 |
| 20260905013040 | 66 | 144 | 2.6 | 0.0 | 0.00 | 0.00 | 0.01 | 86 | 1010.7 |
| 20260905012543 | 67 | 279 | 2.6 | 0.0 | 0.00 | 0.00 | 0.01 | 85 | 1010.6 |
| 20260905012041 | 68 | 262 | 1.7 | 0.0 | 0.00 | 0.00 | 0.01 | 84 | 1010.6 |
| 20260905011541 | 68 | 281 | 1.7 | 0.0 | 0.00 | 0.00 | 0.01 | 83 | 1010.6 |
| 20260905011041 | 69 | 286 | 1.7 | 0.0 | 0.00 | 0.00 | 0.01 | 83 | 1010.8 |
| 20260905010541 | 69 | 239 | 1.7 | 0.0 | 0.00 | 0.00 | 0.01 | 83 | 1010.8 |
| 20260905010044 | 69 | 190 | 1.7 | 0.0 | 0.00 | 0.00 | 0.01 | 82 | 1010.8 |
| 20260905005539 | 69 | 160 | 2.6 | 0.0 | 0.00 | 0.00 | 0.01 | 82 | 1010.8 |
| 20260905005038 | 69 | 204 | 2.6 | 0.0 | 0.00 | 0.00 | 0.01 | 81 | 1010.8 |
| 20260905004538 | 70 | 215 | 2.6 | 0.0 | 0.00 | 0.00 | 0.01 | 80 | 1010.8 |
| 20260905004039 | 70 | 263 | 1.7 | 0.0 | 0.00 | 0.00 | 0.01 | 80 | 1010.7 |
| 20260905003540 | 70 | 209 | 2.6 | 0.0 | 0.00 | 0.00 | 0.01 | 80 | 1010.7 |
| 20260905003044 | 70 | 263 | 2.6 | 0.0 | 0.00 | 0.00 | 0.01 | 81 | 1010.7 |
| 20260905002537 | 70 | 217 | 2.6 | 0.0 | 0.00 | 0.00 | 0.01 | 82 | 1010.9 |
| 20260905002037 | 70 | 207 | 2.6 | 0.0 | 0.00 | 0.00 | 0.01 | 81 | 1010.9 |
| 20260905001536 | 70 | 243 | 2.6 | 0.0 | 0.00 | 0.00 | 0.01 | 80 | 1010.9 |
| 20260905001036 | 70 | 172 | 3.5 | 0.0 | 0.00 | 0.00 | 0.01 | 81 | 1010.8 |
| 20260905000537 | 70 | 161 | 2.6 | 0.0 | 0.00 | 0.00 | 0.01 | 79 | 1010.8 |
| 20260905000037 | 71 | 159 | 2.6 | 0.0 | 0.00 | 0.00 | 0.01 | 78 | 1010.8 |
| 20260904235535 | 71 | 190 | 2.6 | 0.0 | 0.00 | 0.00 | 0.01 | 78 | 1010.8 |
| 20260904235038 | 71 | 202 | 2.6 | 0.0 | 0.00 | 0.00 | 0.01 | 78 | 1010.8 |
| 20260904234536 | 71 | 156 | 2.6 | 0.0 | 0.00 | 0.00 | 0.01 | 78 | 1010.8 |
| 20260904234035 | 71 | 202 | 2.6 | 0.0 | 0.00 | 0.00 | 0.01 | 78 | 1010.8 |
| 20260904233535 | 72 | 292 | 2.6 | 0.0 | 0.00 | 0.00 | 0.01 | 77 | 1010.8 |
| 20260904233035 | 72 | 207 | 2.6 | 0.0 | 0.00 | 0.00 | 0.01 | 77 | 1010.8 |
| 20260904232535 | 72 | 219 | 1.7 | 0.0 | 0.00 | 0.00 | 0.01 | 77 | 1010.9 |
| 20260904232035 | 72 | 159 | 1.7 | 0.0 | 0.00 | 0.00 | 0.01 | 76 | 1010.9 |
| 20260904231537 | 72 | 175 | 1.7 | 0.0 | 0.00 | 0.00 | 0.01 | 74 | 1010.9 |
| 20260904231033 | 72 | 144 | 1.7 | 0.0 | 0.00 | 0.00 | 0.01 | 74 | 1011.0 |
| 20260904230533 | 72 | 202 | 2.6 | 0.0 | 0.00 | 0.00 | 0.01 | 73 | 1011.0 |
| 20260904230057 | 72 | 179 | 2.6 | 0.0 | 0.00 | 0.00 | 0.01 | 73 | 1011.0 |
| 20260904225535 | 72 | 238 | 2.6 | 0.0 | 0.00 | 0.00 | 0.01 | 73 | 1011.0 |
| 20260904225033 | 72 | 198 | 2.6 | 0.0 | 0.00 | 0.00 | 0.01 | 73 | 1011.0 |
| 20260904224533 | 72 | 203 | 2.6 | 0.0 | 0.00 | 0.00 | 0.01 | 72 | 1011.0 |
| 20260904224034 | 72 | 189 | 2.6 | 0.0 | 0.00 | 0.00 | 0.01 | 73 | 1011.0 |
| 20260904223533 | 72 | 192 | 2.6 | 0.0 | 0.00 | 0.00 | 0.01 | 73 | 1011.0 |
| 20260904223032 | 72 | 159 | 1.7 | 0.0 | 0.00 | 0.00 | 0.01 | 72 | 1011.0 |
| 20260904222531 | 72 | 143 | 2.6 | 0.0 | 0.00 | 0.00 | 0.01 | 71 | 1011.1 |
| 20260904222031 | 72 | 181 | 1.7 | 0.0 | 0.00 | 0.00 | 0.01 | 66 | 1011.1 |
| 20260904221531 | 72 | 157 | 1.7 | 0.0 | 0.00 | 0.00 | 0.01 | 71 | 1011.1 |
| 20260904221031 | 72 | 208 | 2.6 | 0.0 | 0.00 | 0.00 | 0.01 | 71 | 1011.2 |
| 20260904220530 | 72 | 203 | 2.6 | 0.0 | 0.00 | 0.00 | 0.01 | 70 | 1011.2 |
| 20260904220030 | 72 | 174 | 2.6 | 0.0 | 0.00 | 0.00 | 0.01 | 71 | 1011.2 |
| 20260904215529 | 72 | 148 | 2.6 | 0.0 | 0.00 | 0.00 | 0.01 | 72 | 1011.4 |
| 20260904215028 | 72 | 205 | 2.6 | 0.0 | 0.00 | 0.00 | 0.01 | 74 | 1011.4 |
| 20260904214528 | 72 | 178 | 2.6 | 0.0 | 0.00 | 0.00 | 0.01 | 74 | 1011.4 |
| 20260904214026 | 72 | 187 | 2.6 | 0.0 | 0.00 | 0.00 | 0.01 | 75 | 1011.5 |
| 20260904213527 | 71 | 148 | 2.6 | 0.0 | 0.00 | 0.00 | 0.01 | 75 | 1011.5 |
| 20260904213027 | 71 | 161 | 2.6 | 0.0 | 0.00 | 0.00 | 0.01 | 75 | 1011.5 |
| 20260904212527 | 71 | 175 | 2.6 | 0.0 | 0.00 | 0.00 | 0.01 | 74 | 1011.5 |
| 20260904212026 | 71 | 198 | 2.6 | 0.0 | 0.00 | 0.00 | 0.01 | 75 | 1011.5 |
| 20260904211526 | 71 | 205 | 2.6 | 0.0 | 0.00 | 0.00 | 0.01 | 74 | 1011.5 |
| 20260904211027 | 71 | 163 | 1.7 | 0.0 | 0.00 | 0.00 | 0.01 | 73 | 1011.5 |
| 20260904210525 | 71 | 202 | 2.6 | 0.0 | 0.00 | 0.00 | 0.01 | 74 | 1011.5 |
| 20260904210024 | 71 | 212 | 2.6 | 0.0 | 0.00 | 0.00 | 0.01 | 74 | 1011.5 |
| 20260904205523 | 71 | 168 | 2.6 | 0.0 | 0.00 | 0.00 | 0.01 | 77 | 1011.5 |
| 20260904205023 | 71 | 213 | 2.6 | 0.0 | 0.00 | 0.00 | 0.01 | 76 | 1011.5 |
| 20260904204523 | 71 | 198 | 2.6 | 0.0 | 0.00 | 0.00 | 0.01 | 77 | 1011.5 |
| 20260904204020 | 70 | 165 | 2.6 | 0.0 | 0.00 | 0.00 | 0.01 | 77 | 1011.5 |
| 20260904203520 | 70 | 144 | 2.6 | 0.0 | 0.00 | 0.00 | 0.01 | 77 | 1011.5 |
| 20260904203020 | 70 | 161 | 2.6 | 0.0 | 0.00 | 0.00 | 0.01 | 78 | 1011.5 |
| 20260904202519 | 70 | 185 | 2.6 | 0.0 | 0.00 | 0.00 | 0.01 | 77 | 1011.8 |
| 20260904202019 | 70 | 184 | 3.5 | 0.0 | 0.00 | 0.00 | 0.01 | 78 | 1011.8 |
| 20260904201519 | 70 | 213 | 2.6 | 0.0 | 0.00 | 0.00 | 0.01 | 77 | 1011.8 |
| 20260904201018 | 70 | 196 | 2.6 | 0.0 | 0.00 | 0.00 | 0.01 | 79 | 1011.9 |
| 20260904200518 | 70 | 165 | 2.6 | 0.0 | 0.00 | 0.00 | 0.01 | 80 | 1011.9 |
| 20260904200018 | 70 | 171 | 2.6 | 0.0 | 0.00 | 0.00 | 0.01 | 79 | 1011.9 |
| 20260904195518 | 70 | 167 | 2.6 | 0.0 | 0.00 | 0.00 | 0.01 | 79 | 1012.0 |
| 20260904195017 | 70 | 215 | 2.6 | 0.0 | 0.00 | 0.00 | 0.01 | 78 | 1012.0 |
| 20260904194518 | 70 | 159 | 2.6 | 0.0 | 0.00 | 0.00 | 0.01 | 78 | 1012.0 |
| 20260904194017 | 70 | 176 | 2.6 | 0.0 | 0.00 | 0.00 | 0.01 | 78 | 1012.0 |
| 20260904193517 | 70 | 163 | 2.6 | 0.0 | 0.00 | 0.00 | 0.01 | 78 | 1012.0 |
| 20260904193033 | 70 | 139 | 2.6 | 0.0 | 0.00 | 0.00 | 0.01 | 79 | 1012.0 |
| 20260904192516 | 69 | 109 | 2.6 | 0.0 | 0.00 | 0.00 | 0.01 | 78 | 1012.1 |
| 20260904192016 | 70 | 189 | 2.6 | 0.0 | 0.00 | 0.00 | 0.01 | 78 | 1012.1 |
| 20260904191519 | 70 | 169 | 2.6 | 0.0 | 0.00 | 0.00 | 0.01 | 78 | 1012.1 |
| 20260904191016 | 70 | 161 | 2.6 | 0.0 | 0.00 | 0.00 | 0.01 | 77 | 1012.5 |
| 20260904190516 | 70 | 192 | 2.6 | 0.0 | 0.00 | 0.00 | 0.01 | 78 | 1012.5 |
| 20260904190032 | 70 | 134 | 2.6 | 0.0 | 0.00 | 0.00 | 0.01 | 79 | 1012.5 |
| 20260904185514 | 69 | 182 | 2.6 | 0.0 | 0.00 | 0.00 | 0.01 | 79 | 1012.7 |
| 20260904185018 | 69 | 205 | 2.6 | 0.0 | 0.00 | 0.00 | 0.01 | 80 | 1012.7 |
| 20260904184514 | 69 | 229 | 2.6 | 0.0 | 0.00 | 0.00 | 0.01 | 79 | 1012.7 |
| 20260904184013 | 69 | 211 | 2.6 | 0.0 | 0.00 | 0.00 | 0.01 | 80 | 1012.7 |
| 20260904183513 | 69 | 210 | 3.5 | 0.0 | 0.00 | 0.00 | 0.01 | 79 | 1012.7 |
| 20260904183013 | 69 | 195 | 2.6 | 0.0 | 0.00 | 0.00 | 0.01 | 79 | 1012.7 |
| 20260904182512 | 70 | 111 | 2.6 | 0.0 | 0.00 | 0.00 | 0.01 | 80 | 1012.6 |
| 20260904182012 | 70 | 162 | 2.6 | 0.0 | 0.00 | 0.00 | 0.01 | 79 | 1012.6 |
| 20260904181512 | 70 | 104 | 2.6 | 0.0 | 0.00 | 0.00 | 0.01 | 79 | 1012.6 |
| 20260904181012 | 70 | 142 | 1.7 | 0.0 | 0.00 | 0.00 | 0.01 | 80 | 1012.6 |
| 20260904180513 | 70 | 197 | 1.7 | 0.0 | 0.00 | 0.00 | 0.01 | 81 | 1012.6 |
| 20260904180010 | 69 | 175 | 1.7 | 0.0 | 0.00 | 0.00 | 0.01 | 81 | 1012.6 |
| 20260904175510 | 69 | 181 | 1.7 | 0.0 | 0.00 | 0.00 | 0.01 | 81 | 1012.6 |
| 20260904175011 | 69 | 163 | 1.7 | 0.0 | 0.00 | 0.00 | 0.01 | 83 | 1012.6 |
| 20260904174508 | 68 | 132 | 2.6 | 0.0 | 0.00 | 0.00 | 0.01 | 84 | 1012.6 |
| 20260904174007 | 68 | 171 | 2.6 | 0.0 | 0.00 | 0.00 | 0.01 | 83 | 1012.6 |
| 20260904173505 | 68 | 277 | 1.7 | 0.0 | 0.00 | 0.00 | 0.01 | 83 | 1012.6 |
| 20260904173005 | 67 | 181 | 1.7 | 0.0 | 0.00 | 0.00 | 0.01 | 82 | 1012.6 |
| 20260904172505 | 67 | 178 | 1.7 | 0.0 | 0.00 | 0.00 | 0.01 | 82 | 1012.5 |
| 20260904172005 | 67 | 218 | 1.7 | 0.0 | 0.00 | 0.00 | 0.01 | 85 | 1012.5 |
| 20260904171502 | 67 | 217 | 0.9 | 0.0 | 0.00 | 0.00 | 0.01 | 86 | 1012.5 |
| 20260904171002 | 66 | 134 | 0.9 | 0.0 | 0.00 | 0.00 | 0.01 | 86 | 1012.5 |
| 20260904170502 | 66 | 153 | 1.7 | 0.0 | 0.00 | 0.00 | 0.01 | 86 | 1012.5 |
| 20260904170001 | 66 | 117 | 1.7 | 0.0 | 0.00 | 0.00 | 0.01 | 85 | 1012.5 |
| 20260904165600 | 66 | 125 | 1.7 | 0.0 | 0.00 | 0.00 | 0.01 | 87 | 1012.2 |
| 20260904165100 | 66 | 175 | 1.7 | 0.0 | 0.00 | 0.00 | 0.01 | 87 | 1012.2 |
| 20260904164604 | 65 | 195 | 1.7 | 0.0 | 0.00 | 0.00 | 0.01 | 87 | 1012.2 |
| 20260904164057 | 65 | 84 | 1.7 | 0.0 | 0.00 | 0.00 | 0.01 | 86 | 1012.1 |
| 20260904163557 | 65 | 188 | 1.7 | 0.0 | 0.00 | 0.00 | 0.01 | 87 | 1012.1 |
| 20260904163106 | 65 | 70 | 0.9 | 0.0 | 0.00 | 0.00 | 0.01 | 88 | 1012.1 |
| 20260904162556 | 65 | 33 | 0.9 | 0.0 | 0.00 | 0.00 | 0.01 | 88 | 1012.1 |
| 20260904162055 | 65 | 111 | 1.7 | 0.0 | 0.00 | 0.00 | 0.01 | 87 | 1012.1 |
| 20260904161555 | 65 | 134 | 2.6 | 0.0 | 0.00 | 0.00 | 0.01 | 88 | 1012.1 |
| 20260904161055 | 65 | 69 | 1.7 | 0.0 | 0.00 | 0.00 | 0.01 | 89 | 1011.8 |
| 20260904160553 | 64 | 109 | 1.7 | 0.0 | 0.00 | 0.00 | 0.01 | 90 | 1011.8 |
| 20260904160104 | 64 | 94 | 1.7 | 0.0 | 0.00 | 0.00 | 0.01 | 92 | 1011.8 |
| 20260904155551 | 64 | 101 | 0.9 | 0.0 | 0.00 | 0.00 | 0.01 | 93 | 1011.8 |
| 20260904155051 | 63 | 87 | 0.9 | 0.0 | 0.00 | 0.00 | 0.01 | 94 | 1011.8 |
| 20260904154549 | 63 | 144 | 0.0 | 0.0 | 0.00 | 0.00 | 0.01 | 96 | 1011.8 |
| 20260904154048 | 62 | 88 | 0.0 | 0.0 | 0.00 | 0.00 | 0.01 | 96 | 1011.9 |
| 20260904153547 | 62 | 107 | 0.9 | 0.0 | 0.00 | 0.00 | 0.01 | 96 | 1011.9 |
| 20260904153101 | 61 | 148 | 1.7 | 0.0 | 0.00 | 0.00 | 0.01 | 95 | 1011.9 |
| 20260904152547 | 61 | 142 | 0.9 | 0.0 | 0.00 | 0.00 | 0.01 | 95 | 1011.8 |
| 20260904152046 | 62 | 104 | 0.0 | 0.0 | 0.00 | 0.00 | 0.01 | 95 | 1011.8 |
| 20260904151546 | 62 | 115 | 0.0 | 0.0 | 0.00 | 0.00 | 0.01 | 96 | 1011.8 |
| 20260904151046 | 62 | 136 | 0.0 | 0.0 | 0.00 | 0.00 | 0.01 | 96 | 1011.8 |
| 20260904150550 | 61 | 112 | 0.0 | 0.0 | 0.00 | 0.00 | 0.01 | 96 | 1011.8 |
| 20260904150100 | 61 | 83 | 0.0 | 0.0 | 0.00 | 0.00 | 0.01 | 96 | 1011.8 |
| 20260904145546 | 61 | 85 | 0.0 | 0.0 | 0.00 | 0.00 | 0.01 | 96 | 1011.7 |
| 20260904145048 | 61 | 62 | 0.0 | 0.0 | 0.00 | 0.00 | 0.01 | 96 | 1011.7 |
| 20260904144547 | 62 | 80 | 0.0 | 0.0 | 0.00 | 0.00 | 0.01 | 96 | 1011.7 |
| 20260904144044 | 62 | 153 | 0.0 | 0.0 | 0.00 | 0.00 | 0.01 | 96 | 1011.4 |
| 20260904143544 | 62 | 153 | 0.0 | 0.0 | 0.00 | 0.00 | 0.01 | 97 | 1011.4 |
| 20260904143043 | 62 | 153 | 0.0 | 0.0 | 0.00 | 0.00 | 0.01 | 97 | 1011.4 |
| 20260904142542 | 62 | 153 | 0.0 | 0.0 | 0.00 | 0.00 | 0.01 | 97 | 1011.2 |
| 20260904142041 | 61 | 153 | 0.0 | 0.0 | 0.00 | 0.00 | 0.01 | 97 | 1011.2 |
| 20260904141540 | 61 | 207 | 0.0 | 0.0 | 0.00 | 0.00 | 0.01 | 97 | 1011.2 |
| 20260904141039 | 61 | 207 | 0.0 | 0.0 | 0.00 | 0.00 | 0.01 | 97 | 1011.2 |
| 20260904140542 | 60 | 207 | 0.0 | 0.0 | 0.00 | 0.00 | 0.01 | 97 | 1011.2 |
| 20260904140038 | 60 | 207 | 0.0 | 0.0 | 0.00 | 0.00 | 0.01 | 96 | 1011.2 |
| 20260904135539 | 60 | 207 | 0.0 | 0.0 | 0.00 | 0.00 | 0.01 | 96 | 1011.1 |
| 20260904135038 | 60 | 207 | 0.0 | 0.0 | 0.00 | 0.00 | 0.01 | 96 | 1011.1 |
| 20260904134546 | 60 | 207 | 0.0 | 0.0 | 0.00 | 0.00 | 0.01 | 97 | 1011.1 |
| 20260904134037 | 60 | 207 | 0.0 | 0.0 | 0.00 | 0.00 | 0.00 | 96 | 1011.0 |
| 20260904133537 | 60 | 207 | 0.0 | 0.0 | 0.00 | 0.00 | 0.00 | 97 | 1011.0 |
| 20260904133037 | 60 | 207 | 0.0 | 0.0 | 0.00 | 0.00 | 0.00 | 97 | 1011.0 |
| 20260904132537 | 60 | 207 | 0.0 | 0.0 | 0.00 | 0.00 | 0.00 | 97 | 1011.0 |
| 20260904132039 | 60 | 207 | 0.0 | 0.0 | 0.00 | 0.00 | 0.00 | 97 | 1011.0 |
| 20260904131535 | 60 | 207 | 0.0 | 0.0 | 0.00 | 0.00 | 0.00 | 97 | 1011.0 |
| 20260904131036 | 60 | 207 | 0.0 | 0.0 | 0.00 | 0.00 | 0.00 | 97 | 1010.8 |
| 20260904130538 | 60 | 207 | 0.0 | 0.0 | 0.00 | 0.00 | 0.00 | 97 | 1010.8 |
| 20260904130051 | 60 | 207 | 0.0 | 0.0 | 0.00 | 0.00 | 0.00 | 96 | 1010.8 |
| 20260904125535 | 60 | 207 | 0.0 | 0.0 | 0.00 | 0.00 | 0.00 | 97 | 1010.6 |
| 20260904125036 | 60 | 207 | 0.0 | 0.0 | 0.00 | 0.00 | 0.00 | 97 | 1010.6 |
| 20260904124538 | 60 | 207 | 0.0 | 0.0 | 0.00 | 0.00 | 0.00 | 97 | 1010.6 |
| 20260904124040 | 60 | 207 | 0.0 | 0.0 | 0.00 | 0.00 | 0.00 | 97 | 1010.6 |
| 20260904123536 | 59 | 270 | 0.0 | 0.0 | 0.00 | 0.00 | 0.00 | 96 | 1010.6 |
| 20260904123033 | 59 | 270 | 0.0 | 0.0 | 0.00 | 0.00 | 0.00 | 96 | 1010.6 |
| 20260904122533 | 59 | 270 | 0.0 | 0.0 | 0.00 | 0.00 | 0.00 | 96 | 1010.6 |
| 20260904122033 | 59 | 270 | 0.0 | 0.0 | 0.00 | 0.00 | 0.00 | 96 | 1010.6 |
| 20260904121535 | 59 | 270 | 0.0 | 0.0 | 0.00 | 0.00 | 0.00 | 96 | 1010.6 |
| 20260904121036 | 59 | 270 | 0.0 | 0.0 | 0.00 | 0.00 | 0.00 | 96 | 1010.5 |
| 20260904120532 | 59 | 270 | 0.0 | 0.0 | 0.00 | 0.00 | 0.00 | 96 | 1010.5 |
| 20260904120037 | 59 | 270 | 0.0 | 0.0 | 0.00 | 0.00 | 0.00 | 96 | 1010.5 |
| 20260904115532 | 59 | 270 | 0.0 | 0.0 | 0.00 | 0.00 | 0.00 | 96 | 1010.5 |